Year,Month,Day,Hour,Minute,Value (Times are PST for windspeed in km/hr)
2016,03,24,00,00,3.30
2016,03,24,00,01,4.00
2016,03,24,00,02,4.60
2016,03,24,00,03,3.30
2016,03,24,00,04,1.50
2016,03,24,00,05,2.00
2016,03,24,00,06,2.90
2016,03,24,00,07,3.10
2016,03,24,00,08,2.20
2016,03,24,00,09,1.10
2016,03,24,00,10,0.50
2016,03,24,00,11,3.10
2016,03,24,00,12,3.30
2016,03,24,00,13,1.40
2016,03,24,00,14,0.00
2016,03,24,00,15,0.00
2016,03,24,00,16,0.00
2016,03,24,00,17,0.90
2016,03,24,00,18,2.20
2016,03,24,00,19,2.60
2016,03,24,00,20,3.70
2016,03,24,00,21,3.60
2016,03,24,00,22,4.10
2016,03,24,00,23,3.80
2016,03,24,00,24,4.10
2016,03,24,00,25,3.10
2016,03,24,00,26,2.30
2016,03,24,00,27,0.40
2016,03,24,00,28,0.50
2016,03,24,00,29,1.10
2016,03,24,00,30,0.50
2016,03,24,00,31,0.30
2016,03,24,00,32,1.00
2016,03,24,00,33,0.10
2016,03,24,00,34,0.40
2016,03,24,00,35,0.70
2016,03,24,00,36,0.20
2016,03,24,00,37,0.00
2016,03,24,00,38,0.60
2016,03,24,00,39,0.80
2016,03,24,00,40,0.70
2016,03,24,00,41,0.80
2016,03,24,00,42,1.60
2016,03,24,00,43,2.40
2016,03,24,00,44,3.10
2016,03,24,00,45,4.00
2016,03,24,00,46,4.90
2016,03,24,00,47,4.60
2016,03,24,00,48,3.30
2016,03,24,00,49,2.90
2016,03,24,00,50,2.00
2016,03,24,00,51,1.90
2016,03,24,00,52,1.60
2016,03,24,00,53,2.80
2016,03,24,00,54,3.10
2016,03,24,00,55,3.60
2016,03,24,00,56,4.50
2016,03,24,00,57,4.10
2016,03,24,00,58,3.00
2016,03,24,00,59,2.80
2016,03,24,01,00,2.60
2016,03,24,01,01,1.60
2016,03,24,01,02,1.90
2016,03,24,01,03,1.10
2016,03,24,01,04,0.00
2016,03,24,01,05,0.50
2016,03,24,01,06,2.40
2016,03,24,01,07,1.60
2016,03,24,01,08,0.50
2016,03,24,01,09,2.00
2016,03,24,01,10,2.60
2016,03,24,01,11,2.90
2016,03,24,01,12,2.10
2016,03,24,01,13,1.70
2016,03,24,01,14,2.10
2016,03,24,01,15,2.70
2016,03,24,01,16,2.60
2016,03,24,01,17,2.70
2016,03,24,01,18,1.70
2016,03,24,01,19,2.20
2016,03,24,01,20,3.20
2016,03,24,01,21,3.40
2016,03,24,01,22,2.50
2016,03,24,01,23,1.90
2016,03,24,01,24,1.40
2016,03,24,01,25,1.10
2016,03,24,01,26,0.70
2016,03,24,01,27,1.60
2016,03,24,01,28,2.00
2016,03,24,01,29,2.10
2016,03,24,01,30,3.00
2016,03,24,01,31,0.80
2016,03,24,01,32,1.60
2016,03,24,01,33,0.50
2016,03,24,01,34,0.00
2016,03,24,01,35,0.40
2016,03,24,01,36,2.60
2016,03,24,01,37,3.00
2016,03,24,01,38,2.40
2016,03,24,01,39,2.90
2016,03,24,01,40,2.90
2016,03,24,01,41,2.10
2016,03,24,01,42,1.60
2016,03,24,01,43,1.10
2016,03,24,01,44,0.80
2016,03,24,01,45,1.70
2016,03,24,01,46,1.40
2016,03,24,01,47,1.00
2016,03,24,01,48,1.60
2016,03,24,01,49,3.40
2016,03,24,01,50,4.10
2016,03,24,01,51,4.00
2016,03,24,01,52,3.00
2016,03,24,01,53,3.10
2016,03,24,01,54,1.70
2016,03,24,01,55,1.10
2016,03,24,01,56,2.40
2016,03,24,01,57,1.20
2016,03,24,01,58,2.10
2016,03,24,01,59,1.60
2016,03,24,02,00,1.10
2016,03,24,02,01,1.00
2016,03,24,02,02,0.70
2016,03,24,02,03,1.40
2016,03,24,02,04,0.80
2016,03,24,02,05,0.10
2016,03,24,02,06,0.70
2016,03,24,02,07,0.40
2016,03,24,02,08,1.50
2016,03,24,02,09,2.10
2016,03,24,02,10,1.30
2016,03,24,02,11,1.90
2016,03,24,02,12,2.60
2016,03,24,02,13,3.90
2016,03,24,02,14,4.60
2016,03,24,02,15,4.60
2016,03,24,02,16,3.90
2016,03,24,02,17,1.20
2016,03,24,02,18,0.80
2016,03,24,02,19,1.00
2016,03,24,02,20,0.60
2016,03,24,02,21,1.70
2016,03,24,02,22,2.10
2016,03,24,02,23,3.10
2016,03,24,02,24,1.80
2016,03,24,02,25,2.00
2016,03,24,02,26,2.40
2016,03,24,02,27,4.50
2016,03,24,02,28,4.00
2016,03,24,02,29,3.10
2016,03,24,02,30,2.00
2016,03,24,02,31,1.00
2016,03,24,02,32,0.60
2016,03,24,02,33,0.00
2016,03,24,02,34,0.00
2016,03,24,02,35,0.10
2016,03,24,02,36,0.40
2016,03,24,02,37,2.30
2016,03,24,02,38,2.90
2016,03,24,02,39,2.20
2016,03,24,02,40,0.60
2016,03,24,02,41,0.20
2016,03,24,02,42,0.40
2016,03,24,02,43,1.10
2016,03,24,02,44,1.40
2016,03,24,02,45,0.80
2016,03,24,02,46,0.20
2016,03,24,02,47,0.00
2016,03,24,02,48,0.00
2016,03,24,02,49,0.00
2016,03,24,02,50,0.00
2016,03,24,02,51,0.80
2016,03,24,02,52,2.30
2016,03,24,02,53,2.30
2016,03,24,02,54,2.70
2016,03,24,02,55,2.90
2016,03,24,02,56,1.90
2016,03,24,02,57,0.70
2016,03,24,02,58,1.40
2016,03,24,02,59,2.10
2016,03,24,03,00,2.00
2016,03,24,03,01,1.80
2016,03,24,03,02,1.90
2016,03,24,03,03,2.10
2016,03,24,03,05,0.50
2016,03,24,03,06,0.50
2016,03,24,03,07,0.90
2016,03,24,03,08,1.70
2016,03,24,03,09,1.10
2016,03,24,03,10,0.20
2016,03,24,03,11,0.10
2016,03,24,03,12,0.00
2016,03,24,03,13,0.00
2016,03,24,03,14,0.90
2016,03,24,03,15,0.70
2016,03,24,03,16,0.00
2016,03,24,03,17,0.20
2016,03,24,03,18,0.40
2016,03,24,03,19,0.00
2016,03,24,03,20,0.40
2016,03,24,03,21,1.40
2016,03,24,03,22,2.40
2016,03,24,03,23,2.90
2016,03,24,03,24,3.40
2016,03,24,03,25,3.30
2016,03,24,03,26,4.80
2016,03,24,03,27,4.50
2016,03,24,03,28,4.20
2016,03,24,03,29,1.00
2016,03,24,03,30,0.80
2016,03,24,03,31,0.10
2016,03,24,03,32,1.40
2016,03,24,03,33,2.40
2016,03,24,03,34,3.60
2016,03,24,03,35,3.40
2016,03,24,03,36,2.60
2016,03,24,03,37,1.80
2016,03,24,03,38,0.80
2016,03,24,03,39,0.80
2016,03,24,03,40,1.10
2016,03,24,03,41,1.40
2016,03,24,03,42,2.60
2016,03,24,03,43,2.30
2016,03,24,03,44,1.70
2016,03,24,03,45,2.20
2016,03,24,03,46,2.60
2016,03,24,03,47,2.20
2016,03,24,03,48,2.10
2016,03,24,03,49,3.00
2016,03,24,03,50,3.50
2016,03,24,03,51,3.20
2016,03,24,03,52,3.70
2016,03,24,03,53,3.70
2016,03,24,03,54,2.50
2016,03,24,03,55,2.30
2016,03,24,03,56,2.20
2016,03,24,03,57,2.00
2016,03,24,03,58,1.70
2016,03,24,03,59,1.60
2016,03,24,04,00,1.30
2016,03,24,04,01,0.10
2016,03,24,04,02,1.20
2016,03,24,04,03,0.20
2016,03,24,04,04,0.00
2016,03,24,04,05,0.00
2016,03,24,04,06,0.00
2016,03,24,04,07,0.20
2016,03,24,04,08,0.20
2016,03,24,04,09,0.00
2016,03,24,04,10,0.00
2016,03,24,04,11,0.00
2016,03,24,04,12,0.70
2016,03,24,04,13,0.70
2016,03,24,04,14,1.30
2016,03,24,04,15,1.00
2016,03,24,04,16,1.00
2016,03,24,04,17,0.20
2016,03,24,04,18,0.10
2016,03,24,04,19,0.00
2016,03,24,04,20,0.00
2016,03,24,04,21,0.20
2016,03,24,04,22,0.00
2016,03,24,04,23,0.00
2016,03,24,04,24,0.00
2016,03,24,04,25,0.00
2016,03,24,04,26,1.60
2016,03,24,04,27,2.30
2016,03,24,04,28,1.10
2016,03,24,04,29,0.60
2016,03,24,04,30,2.70
2016,03,24,04,31,2.40
2016,03,24,04,32,2.60
2016,03,24,04,33,2.20
2016,03,24,04,34,3.00
2016,03,24,04,35,3.00
2016,03,24,04,36,4.40
2016,03,24,04,37,3.30
2016,03,24,04,38,3.30
2016,03,24,04,39,3.30
2016,03,24,04,40,3.30
2016,03,24,04,41,1.90
2016,03,24,04,42,2.10
2016,03,24,04,43,1.40
2016,03,24,04,44,0.50
2016,03,24,04,45,0.40
2016,03,24,04,46,2.00
2016,03,24,04,47,3.40
2016,03,24,04,48,3.50
2016,03,24,04,49,3.40
2016,03,24,04,50,3.40
2016,03,24,04,51,3.00
2016,03,24,04,52,2.30
2016,03,24,04,53,1.10
2016,03,24,04,54,0.40
2016,03,24,04,55,0.00
2016,03,24,04,56,0.00
2016,03,24,04,57,0.40
2016,03,24,04,58,0.70
2016,03,24,04,59,2.30
2016,03,24,05,00,3.10
2016,03,24,05,01,3.30
2016,03,24,05,02,3.20
2016,03,24,05,03,3.10
2016,03,24,05,04,2.70
2016,03,24,05,05,2.10
2016,03,24,05,06,3.20
2016,03,24,05,07,3.10
2016,03,24,05,08,2.90
2016,03,24,05,09,2.90
2016,03,24,05,10,2.90
2016,03,24,05,11,2.70
2016,03,24,05,12,2.20
2016,03,24,05,13,1.30
2016,03,24,05,14,1.70
2016,03,24,05,15,1.10
2016,03,24,05,16,1.10
2016,03,24,05,17,1.50
2016,03,24,05,18,1.90
2016,03,24,05,19,1.80
2016,03,24,05,20,0.70
2016,03,24,05,21,0.00
2016,03,24,05,22,0.50
2016,03,24,05,23,0.90
2016,03,24,05,24,1.40
2016,03,24,05,25,0.50
2016,03,24,05,26,0.00
2016,03,24,05,27,0.30
2016,03,24,05,28,1.90
2016,03,24,05,29,1.90
2016,03,24,05,30,0.70
2016,03,24,05,31,0.00
2016,03,24,05,32,0.00
2016,03,24,05,33,0.00
2016,03,24,05,34,0.00
2016,03,24,05,35,0.10
2016,03,24,05,36,0.80
2016,03,24,05,37,0.90
2016,03,24,05,38,1.40
2016,03,24,05,39,1.60
2016,03,24,05,40,1.40
2016,03,24,05,41,1.80
2016,03,24,05,42,0.50
2016,03,24,05,43,0.00
2016,03,24,05,44,0.00
2016,03,24,05,45,0.00
2016,03,24,05,46,0.00
2016,03,24,05,47,0.10
2016,03,24,05,48,0.80
2016,03,24,05,49,1.50
2016,03,24,05,50,2.20
2016,03,24,05,51,2.00
2016,03,24,05,52,2.50
2016,03,24,05,53,3.10
2016,03,24,05,54,2.60
2016,03,24,05,55,2.30
2016,03,24,05,56,2.20
2016,03,24,05,57,2.60
2016,03,24,05,58,2.90
2016,03,24,05,59,1.60
2016,03,24,06,00,1.60
2016,03,24,06,01,3.00
2016,03,24,06,02,3.50
2016,03,24,06,03,4.10
2016,03,24,06,04,3.00
2016,03,24,06,05,2.00
2016,03,24,06,06,1.70
2016,03,24,06,07,0.40
2016,03,24,06,08,1.70
2016,03,24,06,09,0.70
2016,03,24,06,10,1.30
2016,03,24,06,11,1.60
2016,03,24,06,12,0.60
2016,03,24,06,13,1.00
2016,03,24,06,14,0.50
2016,03,24,06,15,0.90
2016,03,24,06,16,1.40
2016,03,24,06,17,0.80
2016,03,24,06,18,1.40
2016,03,24,06,19,3.10
2016,03,24,06,20,4.10
2016,03,24,06,21,4.80
2016,03,24,06,22,5.10
2016,03,24,06,23,4.70
2016,03,24,06,24,4.00
2016,03,24,06,25,2.40
2016,03,24,06,26,1.70
2016,03,24,06,27,2.10
2016,03,24,06,28,2.10
2016,03,24,06,29,2.00
2016,03,24,06,30,2.20
2016,03,24,06,31,1.90
2016,03,24,06,32,1.40
2016,03,24,06,33,0.20
2016,03,24,06,34,0.30
2016,03,24,06,35,1.30
2016,03,24,06,36,2.50
2016,03,24,06,37,2.60
2016,03,24,06,38,2.70
2016,03,24,06,39,2.80
2016,03,24,06,40,2.90
2016,03,24,06,41,3.00
2016,03,24,06,42,2.90
2016,03,24,06,43,2.40
2016,03,24,06,44,2.00
2016,03,24,06,45,1.00
2016,03,24,06,46,1.30
2016,03,24,06,47,1.90
2016,03,24,06,48,2.00
2016,03,24,06,49,2.70
2016,03,24,06,50,2.00
2016,03,24,06,51,2.10
2016,03,24,06,52,2.10
2016,03,24,06,53,1.80
2016,03,24,06,54,2.50
2016,03,24,06,55,1.40
2016,03,24,06,56,1.20
2016,03,24,06,57,1.00
2016,03,24,06,58,1.90
2016,03,24,06,59,2.30
2016,03,24,07,00,1.50
2016,03,24,07,01,2.40
2016,03,24,07,02,2.00
2016,03,24,07,03,2.80
2016,03,24,07,04,2.70
2016,03,24,07,05,2.70
2016,03,24,07,06,3.00
2016,03,24,07,07,3.00
2016,03,24,07,08,2.60
2016,03,24,07,09,1.40
2016,03,24,07,10,0.50
2016,03,24,07,11,0.80
2016,03,24,07,12,2.80
2016,03,24,07,13,3.30
2016,03,24,07,14,3.00
2016,03,24,07,15,2.50
2016,03,24,07,16,3.10
2016,03,24,07,17,3.40
2016,03,24,07,18,3.80
2016,03,24,07,19,3.60
2016,03,24,07,20,3.30
2016,03,24,07,21,2.80
2016,03,24,07,22,1.90
2016,03,24,07,23,1.40
2016,03,24,07,24,1.00
2016,03,24,07,25,0.20
2016,03,24,07,26,0.80
2016,03,24,07,27,0.00
2016,03,24,07,28,0.00
2016,03,24,07,29,0.50
2016,03,24,07,30,2.00
2016,03,24,07,31,1.00
2016,03,24,07,32,0.90
2016,03,24,07,33,0.90
2016,03,24,07,34,1.10
2016,03,24,07,35,1.70
2016,03,24,07,36,1.80
2016,03,24,07,37,1.80
2016,03,24,07,38,2.70
2016,03,24,07,39,2.40
2016,03,24,07,40,1.00
2016,03,24,07,41,1.60
2016,03,24,07,42,0.80
2016,03,24,07,43,1.20
2016,03,24,07,44,1.40
2016,03,24,07,45,1.90
2016,03,24,07,46,2.30
2016,03,24,07,47,2.10
2016,03,24,07,48,1.70
2016,03,24,07,49,1.70
2016,03,24,07,50,1.10
2016,03,24,07,51,0.60
2016,03,24,07,52,1.00
2016,03,24,07,53,1.10
2016,03,24,07,54,2.00
2016,03,24,07,55,3.00
2016,03,24,07,56,2.30
2016,03,24,07,57,3.20
2016,03,24,07,58,2.30
2016,03,24,07,59,1.50
2016,03,24,08,00,1.30
2016,03,24,08,01,1.60
2016,03,24,08,02,1.50
2016,03,24,08,03,1.40
2016,03,24,08,04,0.30
2016,03,24,08,05,0.30
2016,03,24,08,06,1.30
2016,03,24,08,07,1.30
2016,03,24,08,08,1.20
2016,03,24,08,09,0.70
2016,03,24,08,10,0.40
2016,03,24,08,11,0.20
2016,03,24,08,12,1.00
2016,03,24,08,13,0.80
2016,03,24,08,14,0.10
2016,03,24,08,15,0.30
2016,03,24,08,16,0.70
2016,03,24,08,17,0.30
2016,03,24,08,18,0.80
2016,03,24,08,19,0.50
2016,03,24,08,20,0.30
2016,03,24,08,21,0.80
2016,03,24,08,22,1.50
2016,03,24,08,23,1.60
2016,03,24,08,24,1.40
2016,03,24,08,25,1.60
2016,03,24,08,26,0.90
2016,03,24,08,27,1.90
2016,03,24,08,28,1.90
2016,03,24,08,29,0.90
2016,03,24,08,30,1.30
2016,03,24,08,31,1.40
2016,03,24,08,32,1.10
2016,03,24,08,33,1.20
2016,03,24,08,34,0.90
2016,03,24,08,35,1.10
2016,03,24,08,36,1.40
2016,03,24,08,37,0.80
2016,03,24,08,38,1.60
2016,03,24,08,39,1.20
2016,03,24,08,40,0.70
2016,03,24,08,41,1.60
2016,03,24,08,42,1.70
2016,03,24,08,43,1.40
2016,03,24,08,44,1.60
2016,03,24,08,45,1.90
2016,03,24,08,46,1.90
2016,03,24,08,47,2.70
2016,03,24,08,48,3.00
2016,03,24,08,49,3.20
2016,03,24,08,50,2.90
2016,03,24,08,51,2.40
2016,03,24,08,52,2.60
2016,03,24,08,53,2.30
2016,03,24,08,54,2.20
2016,03,24,08,55,1.80
2016,03,24,08,56,1.50
2016,03,24,08,57,1.60
2016,03,24,08,58,1.00
2016,03,24,08,59,1.50
2016,03,24,09,00,1.00
2016,03,24,09,01,1.30
2016,03,24,09,02,2.20
2016,03,24,09,03,2.30
2016,03,24,09,04,2.70
2016,03,24,09,05,3.20
2016,03,24,09,06,3.40
2016,03,24,09,07,3.00
2016,03,24,09,08,3.00
2016,03,24,09,09,2.20
2016,03,24,09,10,2.30
2016,03,24,09,11,2.60
2016,03,24,09,12,1.70
2016,03,24,09,13,2.40
2016,03,24,09,14,2.40
2016,03,24,09,15,2.80
2016,03,24,09,16,2.60
2016,03,24,09,17,2.90
2016,03,24,09,18,2.80
2016,03,24,09,19,3.90
2016,03,24,09,20,2.10
2016,03,24,09,21,0.40
2016,03,24,09,22,1.30
2016,03,24,09,23,2.80
2016,03,24,09,24,3.60
2016,03,24,09,25,3.30
2016,03,24,09,26,3.00
2016,03,24,09,27,1.80
2016,03,24,09,28,2.00
2016,03,24,09,29,1.80
2016,03,24,09,30,2.00
2016,03,24,09,31,2.40
2016,03,24,09,32,2.30
2016,03,24,09,33,1.90
2016,03,24,09,34,3.20
2016,03,24,09,35,2.70
2016,03,24,09,36,3.00
2016,03,24,09,37,1.50
2016,03,24,09,38,2.10
2016,03,24,09,39,2.50
2016,03,24,09,40,2.10
2016,03,24,09,41,2.90
2016,03,24,09,42,3.60
2016,03,24,09,43,2.90
2016,03,24,09,44,2.90
2016,03,24,09,45,2.70
2016,03,24,09,46,3.30
2016,03,24,09,47,3.00
2016,03,24,09,48,3.10
2016,03,24,09,49,4.10
2016,03,24,09,50,4.80
2016,03,24,09,51,3.00
2016,03,24,09,52,3.40
2016,03,24,09,53,2.30
2016,03,24,09,54,3.50
2016,03,24,09,55,2.30
2016,03,24,09,56,3.40
2016,03,24,09,57,3.30
2016,03,24,09,58,2.60
2016,03,24,09,59,2.20
2016,03,24,10,00,2.70
2016,03,24,10,01,3.70
2016,03,24,10,02,3.40
2016,03,24,10,03,1.90
2016,03,24,10,04,1.60
2016,03,24,10,05,2.60
2016,03,24,10,06,2.30
2016,03,24,10,07,2.30
2016,03,24,10,08,3.50
2016,03,24,10,09,3.70
2016,03,24,10,10,4.30
2016,03,24,10,11,2.30
2016,03,24,10,12,4.00
2016,03,24,10,13,3.70
2016,03,24,10,14,3.20
2016,03,24,10,15,3.00
2016,03,24,10,16,3.40
2016,03,24,10,17,2.20
2016,03,24,10,18,1.90
2016,03,24,10,19,0.10
2016,03,24,10,20,1.30
2016,03,24,10,21,1.60
2016,03,24,10,22,1.40
2016,03,24,10,23,1.40
2016,03,24,10,24,0.80
2016,03,24,10,25,1.20
2016,03,24,10,26,1.90
2016,03,24,10,27,1.60
2016,03,24,10,28,0.20
2016,03,24,10,29,1.00
2016,03,24,10,30,0.60
2016,03,24,10,31,0.90
2016,03,24,10,32,0.40
2016,03,24,10,33,2.50
2016,03,24,10,34,1.10
2016,03,24,10,35,0.00
2016,03,24,10,36,1.30
2016,03,24,10,37,3.70
2016,03,24,10,38,1.40
2016,03,24,10,39,2.90
2016,03,24,10,40,3.50
2016,03,24,10,41,2.90
2016,03,24,10,42,2.10
2016,03,24,10,43,1.00
2016,03,24,10,44,1.60
2016,03,24,10,45,1.20
2016,03,24,10,46,2.00
2016,03,24,10,47,2.10
2016,03,24,10,48,1.00
2016,03,24,10,49,1.70
2016,03,24,10,50,1.90
2016,03,24,10,51,0.90
2016,03,24,10,52,0.10
2016,03,24,10,53,1.10
2016,03,24,10,54,2.60
2016,03,24,10,55,2.00
2016,03,24,10,56,1.00
2016,03,24,10,57,0.90
2016,03,24,10,58,2.20
2016,03,24,10,59,1.20
2016,03,24,11,00,1.10
2016,03,24,11,01,1.80
2016,03,24,11,02,2.00
2016,03,24,11,03,2.80
2016,03,24,11,04,2.70
2016,03,24,11,05,2.40
2016,03,24,11,06,1.90
2016,03,24,11,07,1.90
2016,03,24,11,08,1.70
2016,03,24,11,09,2.20
2016,03,24,11,10,2.40
2016,03,24,11,11,4.00
2016,03,24,11,12,1.70
2016,03,24,11,13,1.80
2016,03,24,11,14,1.70
2016,03,24,11,15,2.10
2016,03,24,11,16,3.10
2016,03,24,11,17,1.90
2016,03,24,11,18,3.40
2016,03,24,11,19,2.40
2016,03,24,11,20,3.00
2016,03,24,11,21,1.10
2016,03,24,11,22,1.60
2016,03,24,11,23,3.00
2016,03,24,11,24,2.40
2016,03,24,11,25,2.40
2016,03,24,11,26,3.20
2016,03,24,11,27,2.90
2016,03,24,11,28,2.30
2016,03,24,11,29,2.40
2016,03,24,11,30,3.00
2016,03,24,11,31,2.30
2016,03,24,11,32,3.80
2016,03,24,11,33,4.60
2016,03,24,11,34,3.30
2016,03,24,11,35,4.10
2016,03,24,11,36,3.90
2016,03,24,11,37,4.10
2016,03,24,11,38,2.70
2016,03,24,11,39,1.30
2016,03,24,11,40,2.40
2016,03,24,11,41,3.20
2016,03,24,11,42,3.30
2016,03,24,11,43,2.80
2016,03,24,11,44,2.90
2016,03,24,11,45,4.40
2016,03,24,11,46,3.90
2016,03,24,11,47,0.90
2016,03,24,11,48,1.60
2016,03,24,11,49,3.00
2016,03,24,11,50,2.00
2016,03,24,11,51,3.00
2016,03,24,11,52,3.20
2016,03,24,11,53,0.90
2016,03,24,11,54,2.00
2016,03,24,11,55,1.40
2016,03,24,11,56,2.50
2016,03,24,11,57,4.30
2016,03,24,11,58,3.00
2016,03,24,11,59,2.30
2016,03,24,12,00,0.80
2016,03,24,12,01,0.30
2016,03,24,12,02,2.50
2016,03,24,12,03,1.60
2016,03,24,12,04,0.80
2016,03,24,12,05,0.30
2016,03,24,12,06,0.20
2016,03,24,12,07,0.20
2016,03,24,12,08,1.90
2016,03,24,12,09,0.90
2016,03,24,12,10,2.70
2016,03,24,12,11,2.70
2016,03,24,12,12,1.90
2016,03,24,12,13,0.50
2016,03,24,12,14,3.10
2016,03,24,12,15,4.40
2016,03,24,12,16,2.90
2016,03,24,12,17,3.00
2016,03,24,12,18,4.70
2016,03,24,12,19,3.90
2016,03,24,12,20,3.40
2016,03,24,12,21,3.20
2016,03,24,12,22,3.20
2016,03,24,12,23,4.20
2016,03,24,12,24,1.40
2016,03,24,12,25,2.30
2016,03,24,12,26,2.00
2016,03,24,12,27,2.70
2016,03,24,12,28,4.20
2016,03,24,12,29,3.00
2016,03,24,12,30,2.90
2016,03,24,12,31,2.20
2016,03,24,12,32,1.70
2016,03,24,12,33,2.70
2016,03,24,12,34,2.00
2016,03,24,12,35,2.20
2016,03,24,12,36,4.60
2016,03,24,12,37,3.10
2016,03,24,12,38,1.70
2016,03,24,12,39,3.20
2016,03,24,12,40,6.60
2016,03,24,12,41,4.50
2016,03,24,12,42,5.60
2016,03,24,12,43,4.80
2016,03,24,12,44,4.50
2016,03,24,12,45,2.90
2016,03,24,12,46,2.10
2016,03,24,12,47,3.80
2016,03,24,12,48,2.50
2016,03,24,12,49,3.20
2016,03,24,12,50,3.90
2016,03,24,12,51,2.60
2016,03,24,12,52,2.70
2016,03,24,12,53,4.10
2016,03,24,12,54,2.70
2016,03,24,12,55,1.70
2016,03,24,12,56,1.50
2016,03,24,12,57,2.90
2016,03,24,12,58,5.30
2016,03,24,12,59,2.50
2016,03,24,13,00,2.80
2016,03,24,13,01,3.30
2016,03,24,13,02,1.60
2016,03,24,13,03,1.70
2016,03,24,13,04,1.70
2016,03,24,13,05,2.90
2016,03,24,13,06,3.80
2016,03,24,13,07,3.10
2016,03,24,13,08,2.30
2016,03,24,13,09,3.30
2016,03,24,13,10,4.10
2016,03,24,13,11,3.90
2016,03,24,13,12,2.10
2016,03,24,13,13,3.30
2016,03,24,13,14,4.70
2016,03,24,13,15,4.50
2016,03,24,13,16,3.60
2016,03,24,13,17,3.90
2016,03,24,13,18,3.50
2016,03,24,13,19,3.90
2016,03,24,13,20,2.10
2016,03,24,13,21,4.00
2016,03,24,13,22,1.80
2016,03,24,13,23,1.20
2016,03,24,13,24,2.30
2016,03,24,13,25,3.60
2016,03,24,13,26,2.80
2016,03,24,13,27,2.80
2016,03,24,13,28,3.30
2016,03,24,13,29,4.30
2016,03,24,13,30,2.70
2016,03,24,13,31,2.10
2016,03,24,13,32,2.60
2016,03,24,13,33,1.70
2016,03,24,13,34,3.00
2016,03,24,13,35,3.30
2016,03,24,13,36,4.20
2016,03,24,13,37,2.60
2016,03,24,13,38,3.90
2016,03,24,13,39,6.10
2016,03,24,13,40,3.30
2016,03,24,13,41,1.40
2016,03,24,13,42,1.90
2016,03,24,13,43,2.40
2016,03,24,13,44,1.40
2016,03,24,13,45,1.60
2016,03,24,13,46,1.40
2016,03,24,13,47,2.40
2016,03,24,13,48,0.70
2016,03,24,13,49,1.00
2016,03,24,13,50,2.10
2016,03,24,13,51,1.60
2016,03,24,13,52,0.80
2016,03,24,13,53,3.00
2016,03,24,13,54,0.90
2016,03,24,13,55,1.90
2016,03,24,13,56,0.30
2016,03,24,13,57,3.80
2016,03,24,13,58,0.50
2016,03,24,13,59,2.00
2016,03,24,14,00,1.70
2016,03,24,14,01,0.70
2016,03,24,14,02,0.60
2016,03,24,14,03,2.50
2016,03,24,14,04,2.10
2016,03,24,14,05,1.80
2016,03,24,14,06,2.80
2016,03,24,14,07,2.60
2016,03,24,14,08,3.20
2016,03,24,14,09,1.40
2016,03,24,14,10,1.60
2016,03,24,14,11,1.60
2016,03,24,14,12,2.40
2016,03,24,14,13,3.20
2016,03,24,14,14,3.70
2016,03,24,14,15,2.10
2016,03,24,14,16,2.40
2016,03,24,14,17,3.00
2016,03,24,14,18,2.40
2016,03,24,14,19,6.00
2016,03,24,14,20,2.90
2016,03,24,14,21,3.20
2016,03,24,14,22,3.40
2016,03,24,14,23,3.40
2016,03,24,14,24,3.00
2016,03,24,14,25,1.60
2016,03,24,14,26,0.80
2016,03,24,14,27,4.10
2016,03,24,14,28,3.90
2016,03,24,14,29,3.50
2016,03,24,14,30,3.80
2016,03,24,14,31,3.90
2016,03,24,14,32,4.40
2016,03,24,14,33,6.20
2016,03,24,14,34,2.50
2016,03,24,14,35,3.90
2016,03,24,14,36,1.80
2016,03,24,14,37,1.20
2016,03,24,14,38,0.30
2016,03,24,14,39,1.60
2016,03,24,14,40,0.80
2016,03,24,14,41,1.80
2016,03,24,14,42,1.10
2016,03,24,14,43,0.40
2016,03,24,14,44,1.80
2016,03,24,14,45,2.70
2016,03,24,14,46,1.40
2016,03,24,14,47,1.70
2016,03,24,14,48,3.30
2016,03,24,14,49,4.80
2016,03,24,14,50,4.30
2016,03,24,14,51,3.10
2016,03,24,14,52,6.70
2016,03,24,14,53,4.80
2016,03,24,14,54,1.60
2016,03,24,14,55,1.50
2016,03,24,14,56,1.90
2016,03,24,14,57,1.50
2016,03,24,14,58,1.60
2016,03,24,14,59,2.90
2016,03,24,15,00,2.00
2016,03,24,15,01,1.20
2016,03,24,15,02,3.10
2016,03,24,15,03,2.30
2016,03,24,15,04,6.00
2016,03,24,15,05,3.30
2016,03,24,15,06,4.80
2016,03,24,15,07,2.70
2016,03,24,15,08,3.60
2016,03,24,15,09,4.20
2016,03,24,15,10,4.80
2016,03,24,15,11,3.10
2016,03,24,15,12,1.20
2016,03,24,15,13,4.20
2016,03,24,15,14,6.80
2016,03,24,15,15,1.50
2016,03,24,15,16,2.70
2016,03,24,15,17,1.10
2016,03,24,15,18,4.20
2016,03,24,15,19,3.60
2016,03,24,15,20,2.30
2016,03,24,15,21,3.30
2016,03,24,15,22,2.50
2016,03,24,15,23,3.90
2016,03,24,15,24,3.10
2016,03,24,15,25,3.30
2016,03,24,15,26,3.90
2016,03,24,15,27,3.90
2016,03,24,15,28,3.10
2016,03,24,15,29,3.40
2016,03,24,15,30,1.60
2016,03,24,15,31,1.10
2016,03,24,15,32,2.10
2016,03,24,15,33,3.70
2016,03,24,15,34,5.60
2016,03,24,15,35,3.20
2016,03,24,15,36,0.20
2016,03,24,15,37,0.40
2016,03,24,15,38,1.30
2016,03,24,15,39,2.40
2016,03,24,15,40,2.90
2016,03,24,15,41,2.10
2016,03,24,15,42,2.00
2016,03,24,15,43,5.80
2016,03,24,15,44,6.00
2016,03,24,15,45,2.60
2016,03,24,15,46,1.40
2016,03,24,15,47,1.60
2016,03,24,15,48,0.80
2016,03,24,15,49,2.30
2016,03,24,15,50,1.50
2016,03,24,15,51,4.60
2016,03,24,15,52,5.10
2016,03,24,15,53,5.80
2016,03,24,15,54,4.50
2016,03,24,15,55,3.50
2016,03,24,15,56,3.90
2016,03,24,15,57,3.60
2016,03,24,15,58,2.00
2016,03,24,15,59,1.40
2016,03,24,16,00,2.90
2016,03,24,16,01,1.90
2016,03,24,16,02,2.60
2016,03,24,16,03,1.10
2016,03,24,16,04,2.00
2016,03,24,16,05,1.60
2016,03,24,16,06,2.40
2016,03,24,16,07,1.90
2016,03,24,16,08,1.90
2016,03,24,16,09,3.00
2016,03,24,16,10,0.80
2016,03,24,16,11,1.00
2016,03,24,16,12,3.00
2016,03,24,16,13,3.10
2016,03,24,16,14,4.90
2016,03,24,16,15,8.20
2016,03,24,16,16,7.60
2016,03,24,16,17,4.90
2016,03,24,16,18,4.10
2016,03,24,16,19,2.30
2016,03,24,16,20,3.00
2016,03,24,16,21,1.80
2016,03,24,16,22,2.50
2016,03,24,16,23,1.70
2016,03,24,16,24,1.00
2016,03,24,16,25,3.00
2016,03,24,16,26,6.20
2016,03,24,16,27,7.70
2016,03,24,16,28,5.00
2016,03,24,16,29,6.70
2016,03,24,16,30,6.30
2016,03,24,16,31,3.40
2016,03,24,16,32,1.50
2016,03,24,16,33,2.80
2016,03,24,16,34,4.40
2016,03,24,16,35,2.80
2016,03,24,16,36,8.30
2016,03,24,16,37,3.70
2016,03,24,16,38,2.90
2016,03,24,16,39,5.80
2016,03,24,16,40,7.20
2016,03,24,16,41,6.90
2016,03,24,16,42,7.10
2016,03,24,16,43,5.10
2016,03,24,16,44,3.20
2016,03,24,16,45,2.60
2016,03,24,16,46,3.10
2016,03,24,16,47,10.40
2016,03,24,16,48,6.60
2016,03,24,16,49,4.90
2016,03,24,16,50,6.70
2016,03,24,16,51,9.30
2016,03,24,16,52,7.90
2016,03,24,16,53,7.70
2016,03,24,16,54,8.80
2016,03,24,16,55,5.40
2016,03,24,16,56,5.70
2016,03,24,16,57,4.60
2016,03,24,16,58,2.30
2016,03,24,16,59,4.00
2016,03,24,17,00,4.70
2016,03,24,17,01,9.20
2016,03,24,17,02,7.60
2016,03,24,17,03,2.60
2016,03,24,17,04,5.00
2016,03,24,17,05,3.80
2016,03,24,17,06,1.70
2016,03,24,17,07,0.90
2016,03,24,17,08,3.20
2016,03,24,17,09,3.20
2016,03,24,17,10,10.10
2016,03,24,17,11,4.20
2016,03,24,17,12,5.30
2016,03,24,17,13,5.20
2016,03,24,17,14,4.20
2016,03,24,17,15,2.40
2016,03,24,17,16,1.90
2016,03,24,17,17,1.80
2016,03,24,17,18,3.60
2016,03,24,17,19,1.70
2016,03,24,17,20,2.50
2016,03,24,17,21,3.40
2016,03,24,17,22,2.60
2016,03,24,17,23,4.30
2016,03,24,17,24,2.20
2016,03,24,17,25,2.90
2016,03,24,17,26,3.20
2016,03,24,17,27,2.40
2016,03,24,17,28,3.10
2016,03,24,17,29,3.00
2016,03,24,17,30,3.30
2016,03,24,17,31,2.70
2016,03,24,17,32,3.60
2016,03,24,17,33,3.50
2016,03,24,17,34,2.10
2016,03,24,17,35,2.30
2016,03,24,17,36,3.70
2016,03,24,17,37,1.60
2016,03,24,17,38,1.60
2016,03,24,17,39,1.70
2016,03,24,17,40,1.70
2016,03,24,17,41,1.60
2016,03,24,17,42,3.10
2016,03,24,17,43,1.30
2016,03,24,17,44,3.70
2016,03,24,17,45,1.60
2016,03,24,17,46,1.90
2016,03,24,17,47,4.30
2016,03,24,17,48,3.90
2016,03,24,17,49,4.20
2016,03,24,17,50,3.80
2016,03,24,17,51,3.60
2016,03,24,17,52,3.60
2016,03,24,17,53,2.50
2016,03,24,17,54,2.00
2016,03,24,17,55,2.20
2016,03,24,17,56,0.40
2016,03,24,17,57,2.10
2016,03,24,17,58,1.10
2016,03,24,17,59,3.40
2016,03,24,18,00,2.90
2016,03,24,18,01,2.80
2016,03,24,18,02,1.10
2016,03,24,18,03,2.10
2016,03,24,18,04,2.30
2016,03,24,18,05,1.70
2016,03,24,18,06,2.90
2016,03,24,18,07,1.60